User: anonymous   Login
Location: Bieujac
(44.5398°N, 0.1549°W)
Time: 03:28:05
(UTC+00:00)
Language:

Gbstr 26 Del rocket - Orbit

View from above orbital plane
View from above orbital plane
View from above satellite
View from above satellite

Ground track
Ground track

The orbit data is extracted from the following two-line orbital elements,

1 25876U 99041E   20021.48723810 -.00000124  00000-0  18151-4 0  9997
2 25876  51.7667 174.4457 0530427 272.6255  81.4090 14.04383586 47852
Epoch (UTC): 21 January 2020 11:41:37
Eccentricity: 0.0530427
inclination: 51.7667°
perigee height: 494 km
apogee height: 1263 km
right ascension of ascending node: 174.4457°
argument of perigee: 272.6255°
revolutions per day: 14.04383586
mean anomaly at epoch: 81.4090°
orbit number at epoch: 4785

The dashed part of the orbit path shows where the satellite is in the earth's shadow,  

DLR